�������l�o���
Date,Time,MP-1(��Sv/h),MP-2(��Sv/h),MP-3(��Sv/h),MP-4(��Sv/h),MP-5(��Sv/h),MP-6(��Sv/h),MP-7(��Sv/h),MP-8(��Sv/h),����,����(m/s),���J
2022/05/24,00:00,0.566,0.829,0.539,1.005,0.710,0.343,0.589,0.557,�쐼,0.9,��
2022/05/24,00:10,0.566,0.827,0.536,1.005,0.710,0.342,0.590,0.556,���쐼,1.4,��
2022/05/24,00:20,0.566,0.828,0.537,1.004,0.713,0.342,0.590,0.557,���쐼,2.6,��
2022/05/24,00:30,0.565,0.826,0.537,1.003,0.711,0.343,0.590,0.556,��,2.0,��
2022/05/24,00:40,0.565,0.826,0.536,1.003,0.709,0.342,0.591,0.555,�k,1.1,��
2022/05/24,00:50,0.565,0.828,0.536,1.003,0.710,0.343,0.591,0.558,�k�k��,1.4,��
2022/05/24,01:00,0.563,0.826,0.537,1.004,0.712,0.343,0.590,0.557,���쐼,2.0,��
2022/05/24,01:10,0.565,0.828,0.535,1.006,0.712,0.342,0.589,0.556,��,3.2,��
2022/05/24,01:20,0.565,0.825,0.536,1.004,0.711,0.341,0.589,0.557,���쐼,3.5,��
2022/05/24,01:30,0.566,0.827,0.537,1.003,0.711,0.343,0.591,0.555,���쐼,2.6,��
2022/05/24,01:40,0.565,0.827,0.536,1.005,0.710,0.342,0.589,0.556,���쐼,2.8,��
2022/05/24,01:50,0.566,0.826,0.536,1.003,0.712,0.342,0.591,0.557,���쐼,2.9,��
2022/05/24,02:00,0.564,0.829,0.537,1.002,0.710,0.342,0.589,0.557,���쐼,3.3,��
2022/05/24,02:10,0.566,0.826,0.536,1.004,0.710,0.342,0.589,0.556,���쐼,3.0,��
2022/05/24,02:20,0.565,0.826,0.537,1.003,0.711,0.342,0.590,0.555,���쐼,2.8,��
2022/05/24,02:30,0.564,0.827,0.537,1.005,0.710,0.343,0.589,0.557,�쐼,1.5,��
2022/05/24,02:40,0.564,0.828,0.536,1.003,0.710,0.342,0.589,0.556,�쐼,0.9,��
2022/05/24,02:50,0.565,0.827,0.534,1.002,0.709,0.342,0.588,0.556,��쐼,1.2,��
2022/05/24,03:00,0.564,0.827,0.537,1.003,0.711,0.343,0.589,0.558,��쐼,1.7,��
2022/05/24,03:10,0.566,0.826,0.538,1.002,0.710,0.342,0.590,0.556,��,1.7,��
2022/05/24,03:20,0.565,0.826,0.538,1.004,0.711,0.343,0.588,0.556,��쐼,1.7,��
2022/05/24,03:30,0.564,0.824,0.535,1.003,0.712,0.341,0.588,0.558,��쐼,1.9,��
2022/05/24,03:40,0.565,0.825,0.536,1.006,0.710,0.342,0.591,0.555,��쐼,2.2,��
2022/05/24,03:50,0.564,0.826,0.537,1.005,0.710,0.342,0.590,0.555,�쐼,1.5,��
2022/05/24,04:00,0.563,0.828,0.536,1.005,0.711,0.341,0.589,0.556,��,1.1,��
2022/05/24,04:10,0.564,0.825,0.537,1.003,0.709,0.342,0.589,0.556,��쐼,0.8,��
2022/05/24,04:20,0.565,0.826,0.536,1.003,0.709,0.342,0.590,0.556,���쐼,0.6,��
2022/05/24,04:30,0.564,0.828,0.535,1.005,0.712,0.342,0.589,0.557,-,CALM,��
2022/05/24,04:40,0.565,0.826,0.536,1.002,0.711,0.341,0.590,0.555,���쐼,1.5,��
2022/05/24,04:50,0.565,0.823,0.536,1.002,0.712,0.343,0.590,0.555,���쐼,1.4,��
2022/05/24,05:00,0.564,0.828,0.537,1.007,0.710,0.342,0.589,0.557,��,1.2,��
2022/05/24,05:10,0.565,0.828,0.536,1.002,0.711,0.342,0.590,0.556,��,2.9,��
2022/05/24,05:20,0.563,0.827,0.536,1.003,0.711,0.341,0.588,0.556,�k��,2.0,��
2022/05/24,05:30,0.563,0.827,0.535,1.005,0.709,0.342,0.588,0.556,�k�k��,1.5,��
2022/05/24,05:40,0.565,0.827,0.537,1.004,0.711,0.341,0.590,0.556,�k,1.4,��
2022/05/24,05:50,0.566,0.829,0.538,1.005,0.712,0.342,0.590,0.557,�k�k��,0.9,��
2022/05/24,06:00,0.565,0.827,0.538,1.003,0.710,0.342,0.590,0.556,�k��,0.6,��
2022/05/24,06:10,0.565,0.829,0.537,1.005,0.712,0.343,0.591,0.555,��,0.8,��
2022/05/24,06:20,0.565,0.827,0.536,1.005,0.711,0.342,0.589,0.556,��쐼,0.9,��
2022/05/24,06:30,0.567,0.828,0.536,1.005,0.712,0.342,0.590,0.558,���쐼,0.8,��
2022/05/24,06:40,0.566,0.823,0.537,1.004,0.712,0.342,0.591,0.556,��,1.1,��
2022/05/24,06:50,0.566,0.825,0.537,1.004,0.712,0.343,0.590,0.556,���쐼,1.2,��
2022/05/24,07:00,0.564,0.825,0.538,1.003,0.710,0.341,0.590,0.557,��,0.6,��
2022/05/24,07:10,0.565,0.826,0.537,1.002,0.711,0.342,0.590,0.557,��,0.6,��
2022/05/24,07:20,0.566,0.825,0.538,1.004,0.712,0.340,0.590,0.558,���쐼,0.6,��
2022/05/24,07:30,0.567,0.827,0.537,1.005,0.711,0.342,0.591,0.557,���쓌,1.2,��
2022/05/24,07:40,0.568,0.825,0.537,1.003,0.712,0.342,0.591,0.559,���쓌,1.2,��
2022/05/24,07:50,0.565,0.827,0.537,1.004,0.711,0.341,0.590,0.557,�쓌,0.8,��
2022/05/24,08:00,0.567,0.829,0.538,1.005,0.714,0.340,0.589,0.555,�쓌,1.7,��
2022/05/24,08:10,0.567,0.829,0.537,1.005,0.712,0.342,0.590,0.556,��,1.5,��
2022/05/24,08:20,0.568,0.826,0.537,1.004,0.712,0.341,0.589,0.555,��,1.5,��
2022/05/24,08:30,0.566,0.825,0.537,1.006,0.710,0.342,0.590,0.556,��,2.0,��
2022/05/24,08:40,0.566,0.829,0.537,1.006,0.712,0.341,0.590,0.554,��,1.9,��
2022/05/24,08:50,0.566,0.827,0.540,1.006,0.713,0.342,0.589,0.555,�쓌,2.2,��
2022/05/24,09:00,0.568,0.829,0.537,1.007,0.712,0.342,0.588,0.557,���쓌,2.3,��
2022/05/24,09:10,0.567,0.827,0.538,1.007,0.713,0.341,0.589,0.556,��,2.5,��
2022/05/24,09:20,0.568,0.829,0.536,1.007,0.712,0.342,0.590,0.555,���쓌,2.3,��
2022/05/24,09:30,0.567,0.831,0.537,1.008,0.713,0.342,0.589,0.555,���쓌,2.3,��
2022/05/24,09:40,0.567,0.830,0.538,1.010,0.713,0.342,0.588,0.556,���쓌,2.5,��
2022/05/24,09:50,0.568,0.831,0.536,1.005,0.714,0.342,0.589,0.556,�쓌,2.3,��
2022/05/24,10:00,0.568,0.830,0.540,1.008,0.713,0.343,0.588,0.555,�쓌,2.6,��
2022/05/24,10:10,0.568,0.830,0.539,1.007,0.713,0.341,0.589,0.554,�쓌,2.6,��
2022/05/24,10:20,0.569,0.830,0.538,1.009,0.715,0.342,0.591,0.556,���쓌,4.2,��
2022/05/24,10:30,0.568,0.833,0.539,1.009,0.716,0.341,0.589,0.554,���쓌,3.4,��
2022/05/24,10:40,0.569,0.832,0.539,1.008,0.715,0.342,0.588,0.556,���쓌,4.2,��
2022/05/24,10:50,0.571,0.833,0.538,1.008,0.717,0.343,0.590,0.556,���쓌,3.8,��
2022/05/24,11:00,0.569,0.831,0.538,1.010,0.716,0.342,0.589,0.558,���쓌,3.9,��
2022/05/24,11:10,0.570,0.832,0.540,1.008,0.716,0.343,0.591,0.558,�쓌,3.4,��
2022/05/24,11:20,0.570,0.833,0.540,1.006,0.716,0.342,0.591,0.555,���쓌,3.6,��
2022/05/24,11:30,0.571,0.833,0.540,1.006,0.719,0.343,0.590,0.557,���쓌,3.5,��
2022/05/24,11:40,0.572,0.835,0.539,1.005,0.718,0.342,0.590,0.557,���쓌,2.9,��
2022/05/24,11:50,0.570,0.834,0.540,1.007,0.718,0.342,0.590,0.557,�쓌,3.8,��
2022/05/24,12:00,0.571,0.833,0.540,1.007,0.717,0.343,0.591,0.558,�쓌,3.3,��
2022/05/24,12:10,0.570,0.833,0.541,1.008,0.718,0.342,0.589,0.558,���쓌,2.2,��
2022/05/24,12:20,0.572,0.837,0.541,1.007,0.719,0.342,0.592,0.556,���쓌,4.1,��
2022/05/24,12:30,0.571,0.836,0.540,1.009,0.717,0.344,0.591,0.558,���쓌,3.6,��
2022/05/24,12:40,0.571,0.837,0.541,1.008,0.721,0.343,0.592,0.558,���쓌,3.2,��
2022/05/24,12:50,0.572,0.835,0.540,1.008,0.721,0.341,0.592,0.557,�쓌,3.6,��
2022/05/24,13:00,0.574,0.836,0.540,1.007,0.720,0.342,0.593,0.556,���쓌,4.0,��
2022/05/24,13:10,0.572,0.835,0.541,1.008,0.720,0.343,0.591,0.559,���쓌,3.5,��
2022/05/24,13:20,0.572,0.837,0.541,1.009,0.721,0.344,0.593,0.557,�쓌,4.0,��
2022/05/24,13:30,0.572,0.835,0.541,1.008,0.722,0.343,0.593,0.559,��쓌,3.1,��
2022/05/24,13:40,0.572,0.839,0.540,1.008,0.723,0.343,0.592,0.558,��쓌,4.4,��
2022/05/24,13:50,0.571,0.836,0.542,1.011,0.719,0.343,0.593,0.558,��쓌,4.7,��
2022/05/24,14:00,0.571,0.839,0.541,1.010,0.721,0.343,0.592,0.558,��쓌,4.7,��
2022/05/24,14:10,0.571,0.838,0.544,1.009,0.720,0.343,0.593,0.557,��쓌,3.8,��
2022/05/24,14:20,0.573,0.837,0.542,1.007,0.721,0.343,0.593,0.559,�쓌,4.3,��
2022/05/24,14:30,0.572,0.835,0.543,1.010,0.722,0.344,0.595,0.559,�쓌,3.8,��
2022/05/24,14:40,0.572,0.836,0.541,1.009,0.722,0.344,0.594,0.559,�쓌,3.9,��
2022/05/24,14:50,0.571,0.838,0.543,1.009,0.722,0.343,0.593,0.559,��,4.4,��
2022/05/24,15:00,0.574,0.839,0.542,1.010,0.722,0.344,0.593,0.556,��쓌,5.5,��
2022/05/24,15:10,0.573,0.836,0.543,1.010,0.723,0.344,0.593,0.558,��쓌,5.7,��
2022/05/24,15:20,0.571,0.840,0.543,1.010,0.721,0.344,0.593,0.559,��쓌,1.7,��
2022/05/24,15:30,0.571,0.838,0.541,1.010,0.723,0.345,0.593,0.560,��쓌,6.2,��
2022/05/24,15:40,0.572,0.838,0.541,1.010,0.722,0.345,0.593,0.558,��쓌,3.1,��
2022/05/24,15:50,0.574,0.837,0.543,1.013,0.723,0.344,0.592,0.558,��쓌,5.9,��
2022/05/24,16:00,0.575,0.841,0.544,1.013,0.724,0.345,0.592,0.559,��쓌,6.0,��
2022/05/24,16:10,0.573,0.839,0.543,1.013,0.723,0.343,0.593,0.559,��쓌,4.8,��
2022/05/24,16:20,0.576,0.840,0.543,1.011,0.724,0.343,0.591,0.558,��쓌,6.0,��
2022/05/24,16:30,0.574,0.840,0.542,1.012,0.723,0.345,0.592,0.559,��쓌,6.2,��
2022/05/24,16:40,0.575,0.842,0.544,1.012,0.723,0.343,0.593,0.558,��쓌,6.3,��
2022/05/24,16:50,0.574,0.839,0.542,1.010,0.722,0.343,0.592,0.559,��쓌,6.6,��
2022/05/24,17:00,0.574,0.838,0.542,1.010,0.722,0.344,0.593,0.559,��쓌,7.1,��
2022/05/24,17:10,0.574,0.840,0.541,1.010,0.724,0.343,0.592,0.558,��쓌,5.7,��
2022/05/24,17:20,0.574,0.842,0.542,1.013,0.723,0.344,0.594,0.560,��쓌,6.0,��
2022/05/24,17:30,0.573,0.842,0.542,1.012,0.721,0.344,0.593,0.559,��쓌,6.8,��
2022/05/24,17:40,0.574,0.841,0.543,1.011,0.722,0.344,0.591,0.558,��,7.8,��
2022/05/24,17:50,0.575,0.841,0.543,1.011,0.722,0.342,0.592,0.559,��,8.7,��
2022/05/24,18:00,0.573,0.841,0.542,1.012,0.723,0.345,0.591,0.558,��,8.3,��
2022/05/24,18:10,0.573,0.839,0.541,1.013,0.723,0.344,0.591,0.561,��쓌,7.8,��
2022/05/24,18:20,0.573,0.841,0.543,1.015,0.722,0.343,0.592,0.560,��,8.0,��
2022/05/24,18:30,0.574,0.841,0.540,1.013,0.722,0.343,0.592,0.560,��,7.3,��
2022/05/24,18:40,0.573,0.842,0.540,1.014,0.723,0.345,0.593,0.561,��쓌,8.2,��
2022/05/24,18:50,0.573,0.841,0.541,1.015,0.722,0.344,0.592,0.560,��쓌,8.6,��
2022/05/24,19:00,0.573,0.840,0.542,1.015,0.722,0.345,0.591,0.561,��,9.7,��
2022/05/24,19:10,0.575,0.840,0.541,1.015,0.723,0.345,0.591,0.559,��쓌,9.3,��
2022/05/24,19:20,0.575,0.844,0.543,1.016,0.723,0.346,0.592,0.560,��,8.5,��
2022/05/24,19:30,0.575,0.842,0.542,1.014,0.723,0.344,0.592,0.561,��,6.6,��
2022/05/24,19:40,0.574,0.841,0.544,1.016,0.724,0.344,0.593,0.560,��,5.8,��
2022/05/24,19:50,0.575,0.843,0.544,1.015,0.724,0.343,0.592,0.560,��,5.5,��
2022/05/24,20:00,0.575,0.845,0.544,1.016,0.725,0.345,0.594,0.560,��,5.9,��
2022/05/24,20:10,0.576,0.844,0.544,1.016,0.725,0.346,0.594,0.560,��,5.2,��
2022/05/24,20:20,0.577,0.844,0.543,1.016,0.726,0.346,0.594,0.560,��,5.7,��
2022/05/24,20:30,0.575,0.844,0.545,1.016,0.725,0.345,0.596,0.559,��,6.3,��
2022/05/24,20:40,0.575,0.845,0.544,1.015,0.724,0.345,0.594,0.561,��,6.6,��
2022/05/24,20:50,0.576,0.843,0.544,1.016,0.725,0.346,0.594,0.561,��,6.6,��
2022/05/24,21:00,0.575,0.842,0.544,1.015,0.724,0.345,0.593,0.560,��,6.9,��
2022/05/24,21:10,0.576,0.841,0.543,1.015,0.725,0.346,0.594,0.560,��,6.5,��
2022/05/24,21:20,0.576,0.844,0.546,1.015,0.726,0.346,0.595,0.559,��,5.7,��
2022/05/24,21:30,0.576,0.842,0.544,1.017,0.725,0.348,0.594,0.559,��,5.2,��
2022/05/24,21:40,0.574,0.845,0.543,1.017,0.723,0.345,0.595,0.561,��,5.0,��
2022/05/24,21:50,0.576,0.844,0.544,1.014,0.724,0.346,0.595,0.562,��,4.7,��
2022/05/24,22:00,0.574,0.843,0.543,1.016,0.725,0.346,0.595,0.559,��,5.3,��
2022/05/24,22:10,0.575,0.844,0.545,1.015,0.725,0.346,0.593,0.561,��,5.3,��
2022/05/24,22:20,0.576,0.845,0.544,1.016,0.727,0.344,0.595,0.560,��,5.4,��
2022/05/24,22:30,0.574,0.843,0.544,1.016,0.724,0.345,0.596,0.561,��,6.0,��
2022/05/24,22:40,0.575,0.845,0.544,1.015,0.725,0.346,0.595,0.561,��,6.1,��
2022/05/24,22:50,0.576,0.845,0.544,1.015,0.724,0.344,0.595,0.560,��,4.7,��
2022/05/24,23:00,0.576,0.842,0.544,1.014,0.727,0.346,0.595,0.561,��,3.8,��
2022/05/24,23:10,0.575,0.842,0.545,1.015,0.726,0.346,0.594,0.561,��,4.7,��
2022/05/24,23:20,0.574,0.844,0.544,1.014,0.725,0.346,0.595,0.560,��,4.7,��
2022/05/24,23:30,0.576,0.843,0.543,1.013,0.726,0.346,0.594,0.560,��,3.9,��
2022/05/24,23:40,0.576,0.844,0.543,1.013,0.723,0.346,0.594,0.561,��,2.6,��
2022/05/24,23:50,0.576,0.842,0.542,1.016,0.724,0.345,0.595,0.559,��,2.6,��
